Flag for USA

Past Weather in 33°51'30"N, 118°14'05"W, USA — Yesterday and Last 2 Weeks

Now
64 °F

Clear.


Feels Like: 64 °F
Forecast: 72 / 55 °F
Wind: No wind

Location: Los Angeles / USC Campus Downtown
Current Time: Oct 25, 2020 at 10:05:06 pm
Latest Report: Oct 25, 2020 at 8:52 pm
Visibility: 10 mi
Pressure29.86 "Hg
Humidity: 63%
Dew Point: 51 °F
Location of 33°51'30"N, 118°14'05"WLocation

Past Weather in 33°51'30"N, 118°14'05"W — Graph

°F

33°51'30"N, 118°14'05"W Temperature Yesterday

Maximum temperature yesterday: 70 °F (at 11:52 am)
Minimum temperature yesterday: 64 °F (at 12:09 am)
Average temperature yesterday: 67 °F

High & Low Weather Summary for the Past Weeks

 TemperatureHumidityPressure
High93 °F (Oct 13, 11:52 am)90% (Oct 18, 4:22 am)30.02 "Hg (Oct 18, 4:22 am)
Low63 °F (Oct 11, 6:52 am)19% (Oct 13, 11:52 am)29.77 "Hg (Oct 21, 4:52 pm)
Average71 °F66%29.91 "Hg
* Reported Oct 10 8:52 pm — Oct 25 8:52 pm, 33°51'30"N, 118°14'05"W. Weather by CustomWeather, © 2020

Note: Actual official high and low records may vary slightly from our data, if they occured in-between our weather recording intervals... More about our weather records

33°51'30"N, 118°14'05"W Weather History for the Previous 24 Hours

Scroll right to see more
 ConditionsComfort  
Time TempWeatherWind HumidityBarometerVisibility
8:52 pm
Sun, Oct 25
64 °FClear.No wind63%29.86 "Hg10 mi
7:52 pm66 °FMostly cloudy.3 mph59%29.85 "Hg10 mi
6:52 pm66 °FOvercast.6 mph56%29.84 "Hg10 mi
5:52 pm66 °FPartly sunny.3 mph56%29.85 "Hg10 mi
4:52 pm68 °FSunny.6 mph51%29.83 "Hg10 mi
3:52 pm69 °FPartly sunny.N/A53%29.84 "Hg10 mi
2:52 pm68 °FOvercast.6 mph53%29.85 "Hg10 mi
1:52 pm68 °FOvercast.7 mph53%29.86 "Hg10 mi
12:52 pm68 °FOvercast.No wind55%29.89 "Hg10 mi
11:52 am70 °FCloudy.No wind51%29.91 "Hg10 mi
10:52 am67 °FCloudy.No wind59%29.91 "Hg10 mi
9:52 am66 °FOvercast.No wind65%29.92 "Hg9 mi
8:52 am65 °FMostly cloudy.No wind68%29.93 "Hg8 mi
7:52 am65 °FMostly cloudy.No wind68%29.91 "Hg8 mi
6:52 am64 °FMostly cloudy.No wind70%29.91 "Hg10 mi
5:52 am64 °FOvercast.No wind68%29.91 "Hg10 mi
4:52 am64 °FOvercast.No wind68%29.91 "Hg10 mi
3:52 am64 °FOvercast.No wind68%29.91 "Hg10 mi
2:52 am65 °FPassing clouds.No wind66%29.92 "Hg10 mi
1:52 am65 °FOvercast.No wind66%29.93 "Hg10 mi
12:52 am66 °FOvercast.No wind63%29.92 "Hg10 mi
11:52 pm
Sat, Oct 24
65 °FOvercast.No wind70%29.93 "Hg10 mi
10:52 pm66 °FOvercast.No wind68%29.93 "Hg10 mi
Weather by CustomWeather, © 2020

See weather overview